Time,TemperatureF,DewpointF,PressureIn,WindDirection,WindDirectionDegrees,WindSpeedMPH,WindSpeedGustMPH,Humidity,HourlyPrecipIn,Conditions,Clouds,dailyrainin,SolarRadiationWatts/m^2,SoftwareType,DateUTC
2013-05-08 00:11:00,58.0,50.0,-100.00,SSW,212,1.0,3.0,73,-99.99,,,0.00,0.000000,,2013-05-08 07:11:00,
2013-05-08 01:11:00,57.0,50.0,-100.00,ESE,115,3.0,5.0,78,-99.99,,,0.00,0.000000,,2013-05-08 08:11:00,
2013-05-08 02:11:00,53.0,49.0,-100.00,SSE,153,1.0,3.0,86,-99.99,,,0.00,0.000000,,2013-05-08 09:11:00,
2013-05-08 03:12:00,50.0,48.0,-100.00,South,180,1.0,4.0,91,-99.99,,,0.00,0.000000,,2013-05-08 10:12:00,
2013-05-08 04:11:00,51.0,49.0,-100.00,SE,125,1.0,2.0,91,-99.99,,,0.00,0.000000,,2013-05-08 11:11:00,
2013-05-08 05:11:00,51.0,48.0,-100.00,SE,135,1.0,4.0,90,-99.99,,,0.00,0.000000,,2013-05-08 12:11:00,
2013-05-08 06:11:00,49.0,47.0,-100.00,SSW,196,2.0,4.0,93,-99.99,,,-99.99,0.000000,,2013-05-08 13:11:00,
2013-05-08 07:11:00,47.0,45.0,-100.00,SSW,196,2.0,4.0,94,-99.99,,,0.00,16.040001,,2013-05-08 14:11:00,
2013-05-08 08:11:00,53.0,50.0,-100.00,South,184,1.0,3.0,88,-99.99,,,0.00,114.239998,,2013-05-08 15:11:00,
2013-05-08 09:12:00,62.0,51.0,-100.00,NNW,327,4.0,7.0,65,-99.99,,,-99.99,234.880005,,2013-05-08 16:12:00,
2013-05-08 10:12:00,65.0,50.0,-100.00,North,350,5.0,9.0,58,-99.99,,,-99.99,451.750000,,2013-05-08 17:12:00,
2013-05-08 12:11:00,68.0,51.0,-100.00,NNW,339,8.0,16.0,53,-99.99,,,0.00,797.619995,,2013-05-08 19:11:00,
2013-05-08 13:11:00,70.0,50.0,-100.00,NNW,330,11.0,19.0,49,-99.99,,,0.00,876.299988,,2013-05-08 20:11:00,
2013-05-08 14:11:00,72.0,51.0,-100.00,NW,323,10.0,19.0,46,-99.99,,,0.00,899.539978,,2013-05-08 21:11:00,
2013-05-08 15:12:00,74.0,51.0,-100.00,NW,322,10.0,19.0,45,-99.99,,,0.00,871.650024,,2013-05-08 22:12:00,
2013-05-08 16:11:00,74.0,51.0,-100.00,NNW,343,10.0,18.0,43,-99.99,,,0.00,789.369995,,2013-05-08 23:11:00,
2013-05-08 17:11:00,76.0,51.0,-100.00,North,1,6.0,16.0,42,-99.99,,,0.00,663.380005,,2013-05-09 00:11:00,
2013-05-08 18:11:00,74.0,51.0,-100.00,NNE,16,7.0,14.0,44,-99.99,,,0.00,503.579987,,2013-05-09 01:11:00,
2013-05-08 19:11:00,72.0,51.0,-100.00,North,358,7.0,14.0,46,-99.99,,,0.00,327.619995,,2013-05-09 02:11:00,
2013-05-08 20:11:00,71.0,51.0,-100.00,North,5,5.0,9.0,49,-99.99,,,0.00,152.949997,,2013-05-09 03:11:00,
2013-05-08 21:12:00,66.0,51.0,-100.00,NNE,30,2.0,5.0,58,-99.99,,,0.00,14.760000,,2013-05-09 04:12:00,
2013-05-08 22:12:00,63.0,51.0,-100.00,ENE,59,2.0,6.0,64,-99.99,,,0.00,0.000000,,2013-05-09 05:12:00,
2013-05-08 23:11:00,56.0,50.0,-100.00,South,184,2.0,3.0,81,-99.99,,,0.00,0.000000,,2013-05-09 06:11:00,